"Pseudo-MPEC" for P11bVQM

Created 2021 Jan 21 11:07:15 UT using Find_Orb

Click here for an explanation of pseudo-MPECs

 
 Astrometry: 
     P11bVQM  C2020 06 28=6V^mU?utVe@pU_?aA-1w?P7arCs`9SX)cpv5r9F73pls5.nw?lpF51
     P11bVQM  C2020 06 28o]WB*\?8:!dy@TK3TbJ.M:pBk6ha_Ks',#%;2(=w[7Q,$+H$/0R#F51
     P11bVQM  C2020 06 28'NnqpVVu)8',0-B5s?J0J0hU2F?BRB#7NvG+LPwS6-`8OO1ISuscF51
     P11bVQM  C2020 10 16.50744 08 27 06.43 +14 20 14.5    ~1FLb       VNEOCPG96
     P11bVQM  C2020 10 16.51123 08 27 07.08 +14 20 11.1    ~1FLb 21.5 GVNEOCPG96
     P11bVQM  C2020 10 16.51503 08 27 07.68 +14 20 07.3    ~1FLb       VNEOCPG96
     P11bVQM  C2020 11 15.50124 09 29 19.96 +07 03 08.7    ~1FLb 21.8 GVNEOCPG96
     P11bVQM  C2020 11 15.51064 09 29 20.74 +07 03 00.8    ~1FLb 22.4 GVNEOCPG96
     P11bVQM  C2020 12 21.43438 09 59 34.06 +00 59 28.5    ~1FLb 21.0 GVNEOCPG96
     P11bVQM  C2020 12 21.43954 09 59 34.08 +00 59 26.1    ~1FLb 22.3 GVNEOCPG96
     P11bVQM  C2020 12 21.44470 09 59 34.01 +00 59 24.7    ~1FLb 22.4 GVNEOCPG96
     P11bVQM  C2021 01 11=)udHrjOw[$M\cy2:S#!m;PwMSPM:@0i*X;kQ8I%t2Xa1d'YYWV`F51
     P11bVQM  C2021 01 11e`cl)Dg4_AjPs\SxWeVrkB\rUo*eVIK?;qJC_/dO:]2m5C3F;XBQF51
     P11bVQM  C2021 01 11+wFibV8gu-mQ$=tc'_luv$B2!U2hTGs+HG$T4T;(+?yZ\Z?NUoSxF51
     P11bVQM  C2021 01 12.38069 09 50 21.13 +00 14 05.1    ~1FLb 22.3 GVNEOCPG96
     P11bVQM  C2021 01 12.38584 09 50 20.83 +00 14 04.5    ~1FLb 21.7 GVNEOCPG96
     P11bVQM  C2021 01 12.39099 09 50 20.56 +00 14 06.0    ~1FLb 21.4 GVNEOCPG96
     P11bVQM  C2021 01 12[T-mKO!L,t-yLBSg$^,#h^7qma$EBX-j]\k0_R*Astrometry#_]F51
     P11bVQM  C2021 01 12*[6q_OX=GU9quHv.U@kkfUP:.Ww8mhc,=A#BX1m5ei]bwl\B]HRhF51
     P11bVQM  C2021 01 12@lvRChE1QQ(MUGIg2x+9:\+v%CE11e#a=FO2ZH:-#;VDNs!X:@;tF51
     P11bVQM |C2021 01 13C;_.[boRbDot$redacted;=5ft*B2o?8(4Xw4OK1j0?%r4X4X'/6807
     P11bVQM |C2021 01 13Dx\y6oH0-PDfMXoRC9bb?4vQI.X2x0UtlTdaclicktI-54P^gswO807
     P11bVQM |C2021 01 135d1mgsKyr'cMUU[@q7n@Dg/3=mkD)aGl.4?437ovK,SEWk9Qi:x-807
     P11bVQM KC2021 01 13ViQ`IlaoUv5ic^:Ecx.WCHb3(icIn:M;!BpwW9;^wU];/5I@YK(FH21
     P11bVQM KC2021 01 13T*54Gi^;)10+-\e?w#q,:2;O[[ba=.;!xOHggqRN`U8%Nj(EvvWlH21
     P11bVQM KC2021 01 13Km'4TyvItRIb@A3Loi2$'kSKMRI0nuWOc1N_Z)ZfRv`Mc3vRy!3kH21
     P11bVQM KC2021 01 13.38242 09 49 28.09 +00 16 01.6    ~1FLb       oNEOCP691
     P11bVQM KC2021 01 13.38691 09 49 27.84 +00 16 02.9    ~1FLb       oNEOCP691
     P11bVQM ^C2021 01 13.41237809 49 26.802+00 16 07.80   ~1FLb 20.97GVNEOCP568
     P11bVQM ^C2021 01 13.41335509 49 26.742+00 16 07.92   ~1FLb 21.01GVNEOCP568
     P11bVQM ^C2021 01 13.41434409 49 26.691+00 16 08.06   ~1FLb 21.00GVNEOCP568
     P11bVQM KC2021 01 13._:ahJ/=[8lAeJyGVO-)8@%D@Z21Bq)]2qauhC3ni.4JXgqhq$qcN51
     P11bVQM KC2021 01 13EQ.?e@*.k3E#_,x'OeP?tC,+:uVF@=QN6=H@%9.JGVnN`3$YaBH(N51
     P11bVQM KC2021 01 13w^4C$RO,hlTcKmKucr+1kyY$`!.]B_vW)Tc2a+$;n)c?XLkc8l/7N51
     P11bVQM ^C2021 01 14.47357809 48 28.274+00 18 35.81   ~1FLb 21.11GVNEOCP568
     P11bVQM ^C2021 01 14.47479109 48 28.198+00 18 36.01   ~1FLb 21.14GVNEOCP568
     P11bVQM ^C2021 01 14.47604109 48 28.128+00 18 36.16   ~1FLb 21.12GVNEOCP568
     P11bVQM *C2021 01 14K3wn`6E:G(n0:UrKdU4*3:OQRA`ilMgMA'k2_3cSherex#cnP4X+E10
     P11bVQM *C2021 01 14H?blp;g0^47%a3,,ygk2PDd-aX]u7Cw-:yf/gvm!gsTYHSF9@P7*E10
     P11bVQM *C2021 01 14^y=uNTL;Z@oFO\vv7o-r)/O9^l!9u/2!KlA@mJViFGaTZyc:Ne:.E10
     P11bVQM KC2021 01 16Xx%t/,!ZRBTEl0i8WP.10aN$69xr=YwqSQZ_R;7to7@Z27VuIA\wL01
     P11bVQM KC2021 01 16ELkd%=[^n,7Efvw[gK+$Ee*1;,%\forCW'oHEt?Z23fIXSy/hgZsL01
     P11bVQM *C2021 01 16kY^Pj;kQt'tQ.iS.rhP_UT=bSPt:J@sbpdW;;RBi)*278P/'[I6iE10
     P11bVQM *C2021 01 16fRvG\qa`7[I-yZn2D]pNo-gpH5?8$`j-LKn3b)6I(pKv]I3Sx)`?E10
     P11bVQM *C2021 01 16]0gLPYP6#*w)0kpru,vWWG.:qumIX-h;=/gGhq7kV4tfZk8/Q4@.E10
     P11bVQM |C2021 01 186NaJI0(0xx(aeOO7gtmUn359%xk:?SPG0kq3!TDSRL:q!CbB=/R1807
     P11bVQM |C2021 01 18BA%H@p_#F`37XGlfEErq_iL\RIya!0^Bi`b_!=HbP9tQ+`v*2mC!807
     P11bVQM |C2021 01 18t%-C$IDh-fXG)qI^4KFetpI4mSF:vhU/1YXUGexplanation?v%f807

Station data:
(568) Mauna Kea  (N19.826116 W155.472200)  US/Hawaii.
(691) Steward Observatory, Kitt Peak - Spacewatch  (N31.962174 W111.600327)
   US/Arizona.  Observer J. V. Scotti. 0.9-m f/3 reflector + CCD.
(807) Cerro Tololo Observatory, La Serena  (S30.169136 W70.805900)  Chile.
(E10) Siding Spring-Faulkes Telescope South  (S31.273173 E149.070280)
   Australia/NSW.
(F51) Pan-STARRS 1, Haleakala  (N20.707235 W156.255910)  US/Hawaii.
   Observers N. Primak, A. Schultz, S. Watters, J. Thiel, T. Goggia. Measurer
   PS1 Science Consortium. 1.8-m Ritchey-Chrétien + CCD.
(G96) Mt. Lemmon Survey  (N32.442754 W110.788720)  US/Arizona.  Observers T.
   A. Pruyne, B. M. Africano, E. J. Christensen, G. A. Farneth, D. C. Fuls,
   A. R. Gibbs, A. D. Grauer, H. Gröller, J. A. Johnson, R. A. Kowalski, S.
   M. Larson, G. J. Leonard, D. Rankin, R. L. Seaman, F. C. Shelly. 1.5-m
   reflector + 10K CCD.
(H21) Astronomical Research Observatory, Westfield  (N39.483057 W87.968270)
   US/Illinois. 0.76-m f/3.0 astrograph + CCD.
(L01) Višnjan Observatory, Tičan  (N45.290900 E13.749300)  Croatia.
   Observers K. Korlević, E. Pettarin. Measurer E. Pettarin. 1.0-m f/2.9
   reflector + CCD.
(N51) GROWTH India Telescope, IAO, Hanle  (N32.779244 E78.964610)  India.

Orbital elements:  P11bVQM
   Perihelion 2020 Sep 6.196494 +/- 0.00283446 TT =  4:42:57 (JD 2459098.696494)
Epoch 2021 Jan 18.0 TT = JDT 2459232.5   Earth MOID: 0.2836   AutoNEOCP
M  34.10959015 +/- 0.0056694        (J2000 ecliptic)
n   0.25492299 +/- 3.7009e-5        Peri.  187.53282 +/- 0.0017271
a   2.46337224 +/- 0.000238408      Node   219.10386 +/- 0.0013008
e   0.4827363 +/- 4.41925e-5        Incl.    6.15479 +/- 0.0001177
P   3.87                   H 19.4   G  0.15   U  5.9  
q 1.27421299 +/- 1.45742e-5    Q 3.65253150 +/- 0.000462478
From 48 observations 2020 June 28-2021 Jan. 18; mean residual 0".45
Residuals in arcseconds: 
200628 F51  .16+  .45+    210112 G96  .82+  .15+    210113 N51  1.7-  .25+    
200628 F51  .21-  .82+    210112 F51  .00   .05-    210113 N51  .78-  .62-    
200628 F51  .26-  .43+    210112 F51  .12+  .06+    210114 568  .09+  .03-    
201016 G96  1.2-  .41-    210112 F51  .02+  .00     210114 568  .04+  .01-    
201016 G96  .12-  .44-    210113 807  .05+  .23-    210114 568  .11+  .05-    
201016 G96  .22+  .86-    210113 807  .05-  .02-    210114 E10  .27+  .33+    
201115 G96  .71+  .62+    210113 807  .00   .01-    210114 E10  .43+  .22+    
201115 G96  .35-  .28+    210113 H21  .65-  .32+    210114 E10  .14+  .10+    
201221 G96  .56+  .15+    210113 H21  .34-  .03-    210116 L01  .20+  .24+    
201221 G96  .81+  .48-    210113 H21  .09-  .06-    210116 L01  .34-  .04-    
201221 G96  .29-  .12-    210113 691  .11-  .54-    210116 E10  .95+  1.5+    
210111 F51  .29+  .11-    210113 691  .00   .18+    210116 E10  .31-  .06+    
210111 F51  .01-  .05+    210113 568  .00   .00     210116 E10  .52-  .67+    
210111 F51  .01-  .07-    210113 568  .07-  .00     210118 807  .11+  .13+    
210112 G96  .84+  .35+    210113 568  .01+  .01+    210118 807  .11+  .50-    
210112 G96  .60+  .80-    210113 N51  .88-  .18-    210118 807  .41+  .24-    

Ephemerides (geocentric):
Date (UTC) HH   RA              Dec         delta   r     elong  mag " sig PA
---- -- -- --  -------------   -----------  ------ ------ -----  --- ---- ---
2021 01 21 11  09 41 17.071   +00 44 21.91  .91859 1.8438 151.4 21.4 .221  98
2021 01 21 12  09 41 14.295   +00 44 33.93  .91864 1.8440 151.4 21.4 .222  98
2021 01 21 13  09 41 11.516   +00 44 45.99  .91869 1.8443 151.5 21.4 .224  98
2021 01 21 14  09 41 08.735   +00 44 58.07  .91874 1.8445 151.5 21.4 .225  98
2021 01 21 15  09 41 05.953   +00 45 10.18  .91879 1.8448 151.6 21.4 .227  98
2021 01 21 16  09 41 03.168   +00 45 22.33  .91885 1.8450 151.6 21.4 .228  99
2021 01 21 17  09 41 00.381   +00 45 34.51  .91890 1.8453 151.7 21.4 .229  99
2021 01 21 18  09 40 57.593   +00 45 46.72  .91895 1.8455 151.7 21.4 .231  99
2021 01 21 19  09 40 54.802   +00 45 58.96  .91900 1.8458 151.8 21.4 .232  99
2021 01 21 20  09 40 52.010   +00 46 11.23  .91906 1.8460 151.8 21.4 .234  99
2021 01 21 21  09 40 49.215   +00 46 23.53  .91911 1.8463 151.9 21.4 .235  99
2021 01 21 22  09 40 46.419   +00 46 35.87  .91917 1.8465 151.9 21.4 .237  99
2021 01 21 23  09 40 43.621   +00 46 48.23  .91922 1.8468 152.0 21.4 .238  99
2021 01 22 00  09 40 40.821   +00 47 00.63  .91928 1.8470 152.0 21.4 .239  99
2021 01 22 01  09 40 38.019   +00 47 13.06  .91933 1.8473 152.1 21.4 .241  99
2021 01 22 02  09 40 35.215   +00 47 25.52  .91939 1.8475 152.1 21.4 .242  99
2021 01 22 03  09 40 32.409   +00 47 38.01  .91944 1.8478 152.2 21.4 .244  99
2021 01 22 04  09 40 29.601   +00 47 50.53  .91950 1.8480 152.2 21.4 .245  99
2021 01 22 05  09 40 26.792   +00 48 03.08  .91956 1.8483 152.3 21.4 .247  99
2021 01 22 06  09 40 23.980   +00 48 15.66  .91961 1.8485 152.3 21.4 .248  99
2021 01 22 07  09 40 21.167   +00 48 28.28  .91967 1.8488 152.4 21.4 .249  99
2021 01 22 08  09 40 18.352   +00 48 40.92  .91973 1.8490 152.4 21.4 .251  99
2021 01 22 09  09 40 15.535   +00 48 53.60  .91979 1.8493 152.5 21.4 .252  99
2021 01 22 10  09 40 12.716   +00 49 06.30  .91985 1.8495 152.5 21.4 .254  99
2021 01 22 11  09 40 09.895   +00 49 19.04  .91990 1.8498 152.6 21.4 .255  99
2021 01 22 12  09 40 07.072   +00 49 31.81  .91996 1.8501 152.6 21.4 .257  99
2021 01 22 13  09 40 04.248   +00 49 44.61  .92002 1.8503 152.7 21.4 .258  99
2021 01 22 14  09 40 01.422   +00 49 57.44  .92008 1.8506 152.7 21.4 .260  99
2021 01 22 15  09 39 58.594   +00 50 10.30  .92014 1.8508 152.7 21.4 .261  99
2021 01 22 16  09 39 55.764   +00 50 23.19  .92021 1.8511 152.8 21.4 .263  99
2021 01 22 17  09 39 52.933   +00 50 36.11  .92027 1.8513 152.8 21.4 .264  99
2021 01 22 18  09 39 50.100   +00 50 49.06  .92033 1.8516 152.9 21.4 .265  99
2021 01 22 19  09 39 47.265   +00 51 02.04  .92039 1.8518 152.9 21.4 .267 100
2021 01 22 20  09 39 44.428   +00 51 15.06  .92045 1.8521 153.0 21.4 .268 100
2021 01 22 21  09 39 41.590   +00 51 28.10  .92052 1.8523 153.0 21.4 .270 100
2021 01 22 22  09 39 38.749   +00 51 41.17  .92058 1.8526 153.1 21.4 .271 100
2021 01 22 23  09 39 35.907   +00 51 54.28  .92064 1.8528 153.1 21.4 .273 100
2021 01 23 00  09 39 33.064   +00 52 07.41  .92071 1.8531 153.2 21.4 .274 100
2021 01 23 01  09 39 30.218   +00 52 20.58  .92077 1.8533 153.2 21.4 .276 100
2021 01 23 02  09 39 27.371   +00 52 33.77  .92083 1.8536 153.3 21.4 .277 100
2021 01 23 03  09 39 24.522   +00 52 46.99  .92090 1.8538 153.3 21.4 .279 100
2021 01 23 04  09 39 21.672   +00 53 00.25  .92096 1.8541 153.4 21.4 .280 100
2021 01 23 05  09 39 18.820   +00 53 13.53  .92103 1.8543 153.4 21.4 .282 100
2021 01 23 06  09 39 15.966   +00 53 26.85  .92110 1.8546 153.5 21.4 .283 100
2021 01 23 07  09 39 13.111   +00 53 40.19  .92116 1.8548 153.5 21.4 .285 100
2021 01 23 08  09 39 10.253   +00 53 53.57  .92123 1.8551 153.6 21.4 .286 100
2021 01 23 09  09 39 07.395   +00 54 06.97  .92130 1.8553 153.6 21.4 .288 100
2021 01 23 10  09 39 04.534   +00 54 20.41  .92136 1.8556 153.7 21.4 .289 100